• în România
  • Lista ţărilor
  • Pe 7 zile
  • Temperatura apei
  • Hartă satelitară
  • Meteo pe hartă
  • Widget-uri
  • user-avatar
    Intrare

    Meteo pe oră la Biryubash

    Astăzi, 15 August, Miercuri

    Timp Temperatura Precipitaţii Vânt Presiune Umiditate
    00:00 +13°C° 0 mm 2 m/s 743 mmHg 93%
    01:00 +13°C° 0 mm 2 m/s 743 mmHg 94%
    02:00 +12°C° 0 mm 2 m/s 743 mmHg 95%
    03:00 +12°C° 0 mm 2 m/s 743 mmHg 95%
    04:00 +12°C° 0 mm 2 m/s 744 mmHg 96%
    05:00 +13°C° 0 mm 2 m/s 744 mmHg 95%
    06:00 +12°C° 0 mm 3 m/s 744 mmHg 93%
    07:00 +13°C° 0 mm 3 m/s 744 mmHg 92%
    08:00 +16°C° 0 mm 3 m/s 745 mmHg 85%
    09:00 +17°C° 0 mm 4 m/s 745 mmHg 78%
    10:00 +19°C° 0 mm 4 m/s 745 mmHg 71%
    11:00 +20°C° 0 mm 4 m/s 745 mmHg 67%
    12:00 +21°C° 0 mm 5 m/s 745 mmHg 64%
    13:00 +21°C° 0 mm 5 m/s 745 mmHg 60%
    14:00 +21°C° 0 mm 5 m/s 745 mmHg 60%
    15:00 +21°C° 0 mm 5 m/s 745 mmHg 60%
    16:00 +22°C° 0 mm 4 m/s 746 mmHg 61%
    17:00 +21°C° 0 mm 3 m/s 746 mmHg 67%
    18:00 +19°C° 0 mm 3 m/s 746 mmHg 73%
    19:00 +18°C° 0 mm 2 m/s 747 mmHg 79%
    20:00 +17°C° 0 mm 2 m/s 747 mmHg 82%
    21:00 +16°C° 0 mm 2 m/s 747 mmHg 85%
    22:00 +15°C° 0 mm 1 m/s 747 mmHg 89%
    23:00 +14°C° 0 mm 1 m/s 747 mmHg 90%

    Mâine, 16 August, Joi

    Timp Temperatura Precipitaţii Vânt Presiune Umiditate
    00:00 +14°C° 0 mm 1 m/s 747 mmHg 90%
    01:00 +13°C° 0 mm 1 m/s 747 mmHg 91%
    02:00 +13°C° 0 mm 1 m/s 747 mmHg 92%
    03:00 +13°C° 0 mm 1 m/s 747 mmHg 92%
    04:00 +13°C° 0 mm 1 m/s 747 mmHg 93%
    05:00 +13°C° 0 mm 2 m/s 747 mmHg 91%
    06:00 +14°C° 0 mm 2 m/s 747 mmHg 89%
    07:00 +15°C° 0 mm 2 m/s 747 mmHg 87%
    08:00 +17°C° 0 mm 3 m/s 747 mmHg 81%
    09:00 +19°C° 0 mm 4 m/s 747 mmHg 74%
    10:00 +21°C° 0 mm 5 m/s 746 mmHg 68%
    11:00 +22°C° 0 mm 6 m/s 746 mmHg 67%
    12:00 +22°C° 0 mm 6 m/s 746 mmHg 65%
    13:00 +23°C° 0 mm 7 m/s 745 mmHg 63%
    14:00 +23°C° 0,3 mm 6 m/s 745 mmHg 68%
    15:00 +23°C° 0,3 mm 6 m/s 745 mmHg 72%
    16:00 +23°C° 0,3 mm 5 m/s 744 mmHg 77%
    17:00 +22°C° 2,4 mm 5 m/s 744 mmHg 81%
    18:00 +21°C° 2,4 mm 5 m/s 744 mmHg 85%
    19:00 +20°C° 2,4 mm 5 m/s 743 mmHg 89%
    20:00 +20°C° 1,2 mm 4 m/s 743 mmHg 91%
    21:00 +19°C° 1,2 mm 4 m/s 744 mmHg 93%
    22:00 +19°C° 1,2 mm 3 m/s 744 mmHg 95%
    23:00 +18°C° 0,1 mm 3 m/s 743 mmHg 96%

    Poimâine, 17 August, Vineri

    Timp Temperatura Precipitaţii Vânt Presiune Umiditate
    00:00 +18°C° 0,1 mm 3 m/s 743 mmHg 97%
    01:00 +18°C° 0,1 mm 3 m/s 743 mmHg 97%
    02:00 +17°C° 0,1 mm 3 m/s 743 mmHg 97%
    03:00 +17°C° 0,1 mm 3 m/s 744 mmHg 97%
    04:00 +17°C° 0,1 mm 3 m/s 744 mmHg 97%
    05:00 +15°C° 0,1 mm 4 m/s 744 mmHg 97%
    06:00 +15°C° 0,1 mm 4 m/s 744 mmHg 96%
    07:00 +14°C° 0,1 mm 4 m/s 745 mmHg 95%
    08:00 +14°C° 0 mm 4 m/s 745 mmHg 92%
    09:00 +14°C° 0 mm 4 m/s 745 mmHg 90%
    10:00 +15°C° 0 mm 4 m/s 746 mmHg 87%
    11:00 +17°C° 0 mm 4 m/s 746 mmHg 81%
    12:00 +18°C° 0 mm 4 m/s 746 mmHg 75%
    13:00 +19°C° 0 mm 4 m/s 747 mmHg 69%
    14:00 +19°C° 0 mm 4 m/s 747 mmHg 68%
    15:00 +20°C° 0 mm 4 m/s 747 mmHg 66%
    16:00 +20°C° 0 mm 4 m/s 747 mmHg 64%
    17:00 +19°C° 0,1 mm 3 m/s 747 mmHg 70%
    18:00 +18°C° 0,1 mm 3 m/s 747 mmHg 75%
    19:00 +17°C° 0,1 mm 2 m/s 747 mmHg 81%
    20:00 +15°C° 0 mm 2 m/s 747 mmHg 84%
    21:00 +14°C° 0 mm 2 m/s 747 mmHg 87%
    22:00 +13°C° 0 mm 2 m/s 748 mmHg 90%
    23:00 +12°C° 0 mm 2 m/s 748 mmHg 91%

    18 August, Sâmbătă

    Timp Temperatura Precipitaţii Vânt Presiune Umiditate
    00:00 +12°C° 0 mm 2 m/s 748 mmHg 93%
    01:00 +10°C° 0 mm 2 m/s 748 mmHg 94%
    02:00 +10°C° 0 mm 2 m/s 748 mmHg 94%
    03:00 +9°C° 0 mm 2 m/s 748 mmHg 95%
    04:00 +9°C° 0 mm 2 m/s 748 mmHg 95%
    05:00 +9°C° 0 mm 2 m/s 749 mmHg 92%
    06:00 +10°C° 0 mm 3 m/s 749 mmHg 90%
    07:00 +11°C° 0 mm 3 m/s 749 mmHg 87%
    08:00 +12°C° 0 mm 3 m/s 749 mmHg 81%
    09:00 +14°C° 0 mm 4 m/s 749 mmHg 75%
    10:00 +15°C° 0 mm 4 m/s 749 mmHg 68%
    11:00 +15°C° 0 mm 4 m/s 749 mmHg 66%
    12:00 +17°C° 0 mm 4 m/s 749 mmHg 64%
    13:00 +17°C° 0 mm 4 m/s 749 mmHg 62%
    14:00 +17°C° 0 mm 4 m/s 749 mmHg 62%
    15:00 +17°C° 0 mm 4 m/s 749 mmHg 63%
    16:00 +15°C° 0 mm 4 m/s 749 mmHg 63%
    17:00 +14°C° 0 mm 4 m/s 749 mmHg 67%
    18:00 +13°C° 0 mm 4 m/s 749 mmHg 71%
    19:00 +12°C° 0 mm 3 m/s 750 mmHg 75%
    20:00 +11°C° 0 mm 3 m/s 750 mmHg 78%
    21:00 +10°C° 0 mm 3 m/s 750 mmHg 82%
    22:00 +9°C° 0 mm 3 m/s 750 mmHg 86%
    23:00 +8°C° 0 mm 3 m/s 750 mmHg 88%

    19 August, Duminică

    Timp Temperatura Precipitaţii Vânt Presiune Umiditate
    00:00 +8°C° 0 mm 3 m/s 751 mmHg 90%
    01:00 +8°C° 0 mm 3 m/s 751 mmHg 92%
    02:00 +7°C° 0 mm 3 m/s 751 mmHg 92%
    03:00 +7°C° 0 mm 3 m/s 751 mmHg 93%
    04:00 +7°C° 0 mm 2 m/s 751 mmHg 93%
    05:00 +8°C° 0 mm 3 m/s 751 mmHg 90%
    06:00 +9°C° 0 mm 3 m/s 751 mmHg 86%
    07:00 +10°C° 0 mm 3 m/s 752 mmHg 83%
    08:00 +12°C° 0 mm 3 m/s 752 mmHg 76%
    09:00 +14°C° 0 mm 3 m/s 751 mmHg 69%
    10:00 +16°C° 0 mm 3 m/s 751 mmHg 63%
    11:00 +17°C° 0 mm 3 m/s 751 mmHg 60%
    12:00 +18°C° 0 mm 4 m/s 751 mmHg 57%
    13:00 +19°C° 0 mm 4 m/s 750 mmHg 54%
    14:00 +19°C° 0 mm 3 m/s 750 mmHg 54%
    15:00 +19°C° 0 mm 3 m/s 750 mmHg 55%
    16:00 +19°C° 0 mm 3 m/s 750 mmHg 56%
    17:00 +18°C° 0 mm 3 m/s 750 mmHg 62%
    18:00 +16°C° 0 mm 2 m/s 750 mmHg 68%
    19:00 +15°C° 0 mm 2 m/s 750 mmHg 74%
    20:00 +14°C° 0 mm 1 m/s 750 mmHg 78%
    21:00 +13°C° 0 mm 1 m/s 750 mmHg 81%
    22:00 +11°C° 0 mm 1 m/s 750 mmHg 84%
    23:00 +11°C° 0 mm 1 m/s 750 mmHg 84%

    20 August, Luni

    Timp Temperatura Precipitaţii Vânt Presiune Umiditate
    00:00 +10°C° 0 mm 0 m/s 750 mmHg 85%
    01:00 +9°C° 0 mm 0 m/s 750 mmHg 85%
    02:00 +9°C° 0 mm 0 m/s 750 mmHg 86%
    03:00 +10°C° 0 mm 1 m/s 750 mmHg 87%
    04:00 +10°C° 0 mm 1 m/s 750 mmHg 88%
    05:00 +11°C° 0 mm 1 m/s 750 mmHg 85%
    06:00 +12°C° 0 mm 1 m/s 750 mmHg 83%
    07:00 +13°C° 0 mm 1 m/s 750 mmHg 81%
    08:00 +15°C° 0 mm 1 m/s 749 mmHg 75%
    09:00 +17°C° 0 mm 2 m/s 749 mmHg 70%
    10:00 +19°C° 0 mm 2 m/s 749 mmHg 64%
    11:00 +20°C° 0 mm 2 m/s 749 mmHg 62%
    12:00 +21°C° 0 mm 3 m/s 748 mmHg 59%
    13:00 +22°C° 0 mm 3 m/s 748 mmHg 57%
    14:00 +21°C° 0,1 mm 3 m/s 748 mmHg 59%
    15:00 +21°C° 0,1 mm 3 m/s 748 mmHg 61%
    16:00 +21°C° 0,1 mm 3 m/s 748 mmHg 64%
    17:00 +20°C° 0 mm 2 m/s 748 mmHg 69%
    18:00 +19°C° 0 mm 2 m/s 747 mmHg 74%
    19:00 +18°C° 0 mm 2 m/s 747 mmHg 79%
    20:00 +17°C° 0 mm 2 m/s 747 mmHg 82%
    21:00 +15°C° 0 mm 2 m/s 747 mmHg 85%
    22:00 +14°C° 0 mm 2 m/s 747 mmHg 88%
    23:00 +14°C° 0 mm 1 m/s 747 mmHg 89%
    Arată mai mult